EN

Hourly Weather Gorlowko

Today, 18 January, Monday

Time Temperature Precipitation Wind Pressure Humidity
00:00 -19°C° 0 mm 1 mps 753 mmHg 88%
01:00 -19°C° 0 mm 1 mps 753 mmHg 87%
02:00 -19°C° 0 mm 1 mps 753 mmHg 86%
03:00 -19°C° 0 mm 1 mps 752 mmHg 85%
04:00 -19°C° 0 mm 1 mps 752 mmHg 85%
05:00 -19°C° 0 mm 1 mps 752 mmHg 85%
06:00 -19°C° 0 mm 1 mps 752 mmHg 85%
07:00 -19°C° 0 mm 1 mps 752 mmHg 84%
08:00 -18°C° 0 mm 1 mps 752 mmHg 82%
09:00 -16°C° 0 mm 1 mps 752 mmHg 81%
10:00 -15°C° 0 mm 1 mps 752 mmHg 79%
11:00 -14°C° 0 mm 1 mps 752 mmHg 80%
12:00 -13°C° 0 mm 1 mps 752 mmHg 80%
13:00 -12°C° 0 mm 1 mps 752 mmHg 80%
14:00 -13°C° 0 mm 1 mps 752 mmHg 83%
15:00 -16°C° 0 mm 2 mps 752 mmHg 86%
16:00 -16°C° 0 mm 2 mps 751 mmHg 89%
17:00 -16°C° 0 mm 2 mps 751 mmHg 90%
18:00 -17°C° 0 mm 2 mps 751 mmHg 91%
19:00 -17°C° 0 mm 2 mps 751 mmHg 92%
20:00 -17°C° 0 mm 2 mps 751 mmHg 92%
21:00 -17°C° 0 mm 2 mps 751 mmHg 92%
22:00 -17°C° 0 mm 2 mps 751 mmHg 92%
23:00 -17°C° 0 mm 2 mps 751 mmHg 93%

Tomorrow, 19 January, Tuesday

Time Temperature Precipitation Wind Pressure Humidity
00:00 -18°C° 0 mm 2 mps 751 mmHg 93%
01:00 -19°C° 0 mm 3 mps 751 mmHg 93%
02:00 -19°C° 0 mm 3 mps 750 mmHg 93%
03:00 -19°C° 0 mm 3 mps 750 mmHg 93%
04:00 -18°C° 0 mm 3 mps 749 mmHg 93%
05:00 -19°C° 0 mm 3 mps 749 mmHg 93%
06:00 -20°C° 0 mm 4 mps 749 mmHg 93%
07:00 -20°C° 0 mm 4 mps 748 mmHg 92%
08:00 -19°C° 0 mm 4 mps 748 mmHg 91%
09:00 -18°C° 0 mm 4 mps 748 mmHg 90%
10:00 -18°C° 0 mm 5 mps 747 mmHg 89%
11:00 -17°C° 0.1 mm 5 mps 747 mmHg 90%
12:00 -15°C° 0.1 mm 5 mps 747 mmHg 91%
13:00 -14°C° 0.1 mm 5 mps 746 mmHg 92%
14:00 -13°C° 0.2 mm 5 mps 746 mmHg 92%
15:00 -13°C° 0.2 mm 5 mps 745 mmHg 93%
16:00 -13°C° 0.2 mm 5 mps 745 mmHg 93%
17:00 -13°C° 0.1 mm 5 mps 745 mmHg 94%
18:00 -11°C° 0.1 mm 4 mps 745 mmHg 94%
19:00 -11°C° 0.1 mm 4 mps 744 mmHg 94%
20:00 -10°C° 0.1 mm 4 mps 744 mmHg 94%
21:00 -10°C° 0.1 mm 4 mps 744 mmHg 95%
22:00 -9°C° 0.1 mm 4 mps 744 mmHg 95%
23:00 -8°C° 0.1 mm 4 mps 743 mmHg 95%

Day after tomorrow, 20 January, Wednesday

Time Temperature Precipitation Wind Pressure Humidity
00:00 -7°C° 0.1 mm 5 mps 743 mmHg 95%
01:00 -6°C° 0.1 mm 5 mps 743 mmHg 95%
02:00 -6°C° 0.1 mm 5 mps 742 mmHg 95%
03:00 -6°C° 0.1 mm 5 mps 742 mmHg 95%
04:00 -5°C° 0.1 mm 6 mps 741 mmHg 95%
05:00 -6°C° 0.1 mm 6 mps 741 mmHg 95%
06:00 -6°C° 0.1 mm 6 mps 741 mmHg 94%
07:00 -8°C° 0.1 mm 6 mps 740 mmHg 94%
08:00 -6°C° 0.3 mm 6 mps 740 mmHg 94%
09:00 -6°C° 0.3 mm 6 mps 740 mmHg 95%
10:00 -5°C° 0.3 mm 6 mps 740 mmHg 95%
11:00 -4°C° 0.3 mm 6 mps 740 mmHg 96%
12:00 -2°C° 0.3 mm 5 mps 740 mmHg 97%
13:00 -1°C° 0.3 mm 5 mps 740 mmHg 98%
14:00 -1°C° 0.3 mm 5 mps 740 mmHg 98%
15:00 -1°C° 0.3 mm 5 mps 739 mmHg 98%
16:00 -2°C° 0.3 mm 6 mps 739 mmHg 98%
17:00 -2°C° 0.2 mm 6 mps 739 mmHg 97%
18:00 -2°C° 0.2 mm 6 mps 739 mmHg 97%
19:00 -2°C° 0.2 mm 6 mps 740 mmHg 96%
20:00 -1°C° 0.6 mm 5 mps 739 mmHg 96%
21:00 -1°C° 0.6 mm 5 mps 739 mmHg 96%
22:00 -1°C° 0.6 mm 5 mps 739 mmHg 96%
23:00 -1°C° 0.3 mm 5 mps 739 mmHg 95%

21 January, Thursday

Time Temperature Precipitation Wind Pressure Humidity
00:00 -1°C° 0.3 mm 5 mps 740 mmHg 95%
01:00 -1°C° 0.3 mm 4 mps 740 mmHg 95%
02:00 -1°C° 0 mm 4 mps 740 mmHg 93%
03:00 -1°C° 0 mm 4 mps 740 mmHg 92%
04:00 -2°C° 0 mm 4 mps 740 mmHg 91%
05:00 -2°C° 0 mm 4 mps 740 mmHg 90%
06:00 -2°C° 0 mm 4 mps 740 mmHg 89%
07:00 -2°C° 0 mm 4 mps 740 mmHg 89%
08:00 -2°C° 0 mm 4 mps 740 mmHg 88%
09:00 -2°C° 0 mm 5 mps 740 mmHg 88%
10:00 -1°C° 0 mm 5 mps 740 mmHg 87%
11:00 -1°C° 0 mm 5 mps 740 mmHg 89%
12:00 -1°C° 0 mm 5 mps 740 mmHg 91%
13:00 -1°C° 0 mm 5 mps 740 mmHg 93%
14:00 -1°C° 0 mm 4 mps 740 mmHg 93%
15:00 -2°C° 0 mm 4 mps 740 mmHg 94%
16:00 -2°C° 0 mm 4 mps 740 mmHg 94%
17:00 -2°C° 0 mm 4 mps 739 mmHg 93%
18:00 -2°C° 0 mm 4 mps 739 mmHg 93%
19:00 -2°C° 0 mm 4 mps 739 mmHg 93%
20:00 -3°C° 0 mm 4 mps 739 mmHg 93%
21:00 -3°C° 0 mm 4 mps 738 mmHg 94%
22:00 -3°C° 0 mm 4 mps 738 mmHg 95%
23:00 -3°C° 0 mm 4 mps 737 mmHg 96%

22 January, Friday

Time Temperature Precipitation Wind Pressure Humidity
00:00 -2°C° 0 mm 4 mps 737 mmHg 96%
01:00 -2°C° 0 mm 4 mps 737 mmHg 97%
02:00 -2°C° 0 mm 4 mps 737 mmHg 96%
03:00 -2°C° 0 mm 4 mps 736 mmHg 96%
04:00 -2°C° 0 mm 4 mps 736 mmHg 95%
05:00 -2°C° 0 mm 4 mps 736 mmHg 94%
06:00 -3°C° 0 mm 4 mps 736 mmHg 93%
07:00 -3°C° 0 mm 4 mps 736 mmHg 92%
08:00 -2°C° 0 mm 4 mps 736 mmHg 93%
09:00 -2°C° 0 mm 4 mps 736 mmHg 94%
10:00 -1°C° 0 mm 4 mps 736 mmHg 94%
11:00 -1°C° 0 mm 4 mps 736 mmHg 96%
12:00 -1°C° 0 mm 5 mps 735 mmHg 97%
13:00 0°C° 0 mm 5 mps 735 mmHg 99%
14:00 0°C° 0 mm 5 mps 734 mmHg 99%
15:00 0°C° 0 mm 4 mps 734 mmHg 98%
16:00 0°C° 0 mm 4 mps 734 mmHg 98%
17:00 0°C° 0.1 mm 4 mps 734 mmHg 98%
18:00 +1°C° 0.1 mm 3 mps 734 mmHg 98%
19:00 +1°C° 0.1 mm 3 mps 734 mmHg 99%
20:00 0°C° 0 mm 3 mps 734 mmHg 98%
21:00 0°C° 0 mm 3 mps 735 mmHg 98%
22:00 0°C° 0 mm 3 mps 735 mmHg 98%
23:00 0°C° 0 mm 3 mps 736 mmHg 97%

23 January, Saturday

Time Temperature Precipitation Wind Pressure Humidity
00:00 +1°C° 0 mm 2 mps 736 mmHg 97%
01:00 -1°C° 0 mm 2 mps 736 mmHg 96%
02:00 -1°C° 0 mm 2 mps 737 mmHg 96%
03:00 +1°C° 0 mm 1 mps 737 mmHg 95%
04:00 +1°C° 0 mm 1 mps 737 mmHg 95%
05:00 +1°C° 0 mm 1 mps 737 mmHg 94%
06:00 +1°C° 0 mm 1 mps 737 mmHg 93%
07:00 +1°C° 0 mm 1 mps 737 mmHg 93%
08:00 +1°C° 0 mm 1 mps 737 mmHg 93%
09:00 +2°C° 0 mm 1 mps 737 mmHg 94%
10:00 +2°C° 0 mm 1 mps 737 mmHg 95%
11:00 +2°C° 0 mm 1 mps 737 mmHg 95%
12:00 +2°C° 0 mm 1 mps 737 mmHg 96%
13:00 +2°C° 0 mm 1 mps 737 mmHg 97%
14:00 +2°C° 0 mm 1 mps 737 mmHg 95%
15:00 +2°C° 0 mm 1 mps 737 mmHg 93%
16:00 +1°C° 0 mm 1 mps 737 mmHg 91%
17:00 -1°C° 0 mm 2 mps 737 mmHg 91%
18:00 -1°C° 0 mm 2 mps 737 mmHg 92%
19:00 -1°C° 0 mm 2 mps 737 mmHg 92%
20:00 -2°C° 0 mm 2 mps 737 mmHg 93%
21:00 -2°C° 0 mm 2 mps 737 mmHg 94%
22:00 -3°C° 0 mm 2 mps 737 mmHg 95%
23:00 -3°C° 0 mm 2 mps 737 mmHg 96%
Show more

We Need Your Consent

Meteoprog and our Service Providers may store and access personal data such as cookies, device identifiers or other similar technologies on your device and process such data to personalise content and ads, as well as provide social media features and to analyse the traffic.

  • Store and/or access information on your device

    Cookies, device identifiers or other information can be stored or accessed on your device for the purposes indicated above.

  • Personalised ads and content, ad and content measurement, audience insights, and products development

    Ads and content can be personalised based on a profile. More data can be added to better personalise ads and content. Ad and content performance can be measured. Insights about the audience who saw the ads and content can be derived. Such data can be used to develop or improve user’s experience, systems and software.

By clicking ‘I Agree’ you will allow the use of indicated cookies, device identifiers, web beacons or other similar technologies. Your settings can be changed in the browser on your device.

For certain purposes, legitimate interests may be relied on, rather than consent. You can read more about this in our Privacy and Cookie Policy.